Year,Month,Day,Hour,Minute,Value (Times are PST for temperature in C)
2016,03,14,08,25,3.60
2016,03,14,08,26,3.60
2016,03,14,08,27,3.60
2016,03,14,08,28,3.70
2016,03,14,08,29,3.70
2016,03,14,08,30,3.70
2016,03,14,08,31,3.80
2016,03,14,08,32,3.80
2016,03,14,08,33,3.90
2016,03,14,08,34,3.90
2016,03,14,08,35,3.90
2016,03,14,08,36,3.90
2016,03,14,08,37,3.90
2016,03,14,08,38,3.90
2016,03,14,08,39,3.90
2016,03,14,08,40,3.90
2016,03,14,08,41,3.90
2016,03,14,08,42,3.90
2016,03,14,08,43,4.20
2016,03,14,08,44,4.30
2016,03,14,08,45,4.40
2016,03,14,08,46,4.50
2016,03,14,08,47,4.50
2016,03,14,08,48,4.60
2016,03,14,08,49,4.70
2016,03,14,08,50,4.70
2016,03,14,08,51,4.80
2016,03,14,08,52,4.80
2016,03,14,08,53,4.80
2016,03,14,08,54,4.90
2016,03,14,08,55,4.90
2016,03,14,08,56,4.90
2016,03,14,08,57,4.90
2016,03,14,08,58,5.00
2016,03,14,08,59,5.00
2016,03,14,09,00,5.00
2016,03,14,09,01,5.00
2016,03,14,09,02,5.00
2016,03,14,09,03,5.00
2016,03,14,09,04,5.00
2016,03,14,09,05,5.00
2016,03,14,09,06,5.00
2016,03,14,09,07,5.10
2016,03,14,09,08,5.10
2016,03,14,09,09,5.10
2016,03,14,09,10,5.10
2016,03,14,09,11,5.10
2016,03,14,09,12,5.10
2016,03,14,09,13,5.10
2016,03,14,09,14,5.10
2016,03,14,09,15,5.10
2016,03,14,09,16,5.10
2016,03,14,09,17,5.00
2016,03,14,09,18,5.00
2016,03,14,09,19,5.00
2016,03,14,09,20,5.00
2016,03,14,09,21,5.00
2016,03,14,09,22,5.00
2016,03,14,09,23,5.00
2016,03,14,09,24,5.00
2016,03,14,09,25,5.00
2016,03,14,09,26,5.00
2016,03,14,09,27,5.00
2016,03,14,09,28,5.00
2016,03,14,09,29,5.00
2016,03,14,09,30,5.00
2016,03,14,10,03,5.40
2016,03,14,10,04,5.40
2016,03,14,10,05,5.40
2016,03,14,10,06,5.40
2016,03,14,10,07,5.40
2016,03,14,10,08,5.40
2016,03,14,10,09,5.40
2016,03,14,10,10,5.50
2016,03,14,10,11,5.50
2016,03,14,10,12,5.60
2016,03,14,10,13,5.60
2016,03,14,10,14,5.70
2016,03,14,10,15,5.70
2016,03,14,10,16,5.80
2016,03,14,10,17,5.80
2016,03,14,10,18,5.90
2016,03,14,10,19,5.90
2016,03,14,10,20,5.90
2016,03,14,10,21,5.90
2016,03,14,10,22,5.90
2016,03,14,10,23,5.90
2016,03,14,10,24,5.90
2016,03,14,10,25,5.90
2016,03,14,10,26,5.90
2016,03,14,10,27,5.90
2016,03,14,10,28,6.00
2016,03,14,10,29,6.00
2016,03,14,10,30,6.00
2016,03,14,10,31,6.00
2016,03,14,10,32,6.00
2016,03,14,10,33,6.00
2016,03,14,10,34,6.10
2016,03,14,10,35,6.10
2016,03,14,10,36,6.10
2016,03,14,10,37,6.10
2016,03,14,10,38,6.10
2016,03,14,10,39,6.10
2016,03,14,10,40,6.20
2016,03,14,10,41,6.20
2016,03,14,10,42,6.30
2016,03,14,10,43,6.30
2016,03,14,10,44,6.40
2016,03,14,10,45,6.40
2016,03,14,10,46,6.40
2016,03,14,10,47,6.50
2016,03,14,10,48,6.50
2016,03,14,10,49,6.50
2016,03,14,10,50,6.50
2016,03,14,10,51,6.60
2016,03,14,10,52,6.60
2016,03,14,10,53,6.60
2016,03,14,10,54,6.60
2016,03,14,10,55,6.60
2016,03,14,10,56,6.60
2016,03,14,10,57,6.70
2016,03,14,10,58,6.70
2016,03,14,10,59,6.70
2016,03,14,11,00,6.70
2016,03,14,11,01,6.70
2016,03,14,11,02,6.70
2016,03,14,11,03,6.70
2016,03,14,11,04,6.60
2016,03,14,11,05,6.60
2016,03,14,11,06,6.50
2016,03,14,11,07,6.50
2016,03,14,11,08,6.60
2016,03,14,11,09,6.60
2016,03,14,11,10,6.70
2016,03,14,11,11,6.70
2016,03,14,11,12,6.80
2016,03,14,11,13,6.90
2016,03,14,11,14,7.00
2016,03,14,11,15,7.10
2016,03,14,11,16,7.20
2016,03,14,11,17,7.20
2016,03,14,11,18,7.30
2016,03,14,11,19,7.30
2016,03,14,11,20,7.30
2016,03,14,11,21,7.30
2016,03,14,11,22,7.30
2016,03,14,11,23,7.30
2016,03,14,11,24,7.30
2016,03,14,11,25,7.20
2016,03,14,11,26,7.20
2016,03,14,11,27,7.20
2016,03,14,11,28,7.10
2016,03,14,11,29,7.10
2016,03,14,11,30,7.00
2016,03,14,11,31,7.00
2016,03,14,11,32,7.00
2016,03,14,11,33,6.90
2016,03,14,11,34,6.90
2016,03,14,11,35,6.90
2016,03,14,11,36,7.00
2016,03,14,11,37,7.00
2016,03,14,11,38,7.10
2016,03,14,11,39,7.20
2016,03,14,11,40,7.20
2016,03,14,11,41,7.30
2016,03,14,11,42,7.30
2016,03,14,11,43,7.40
2016,03,14,11,44,7.50
2016,03,14,11,45,7.60
2016,03,14,11,46,7.70
2016,03,14,11,47,7.80
2016,03,14,11,48,7.80
2016,03,14,11,49,7.90
2016,03,14,11,50,7.90
2016,03,14,11,51,8.00
2016,03,14,11,52,8.00
2016,03,14,11,53,8.10
2016,03,14,11,54,8.10
2016,03,14,11,55,8.10
2016,03,14,11,56,8.10
2016,03,14,11,57,8.20
2016,03,14,11,58,8.20
2016,03,14,11,59,8.20
2016,03,14,12,00,8.30
2016,03,14,12,01,8.30
2016,03,14,12,02,8.40
2016,03,14,12,03,8.50
2016,03,14,12,04,8.60
2016,03,14,12,05,8.60
2016,03,14,12,06,8.60
2016,03,14,12,07,8.60
2016,03,14,12,08,8.60
2016,03,14,12,09,8.60
2016,03,14,12,10,8.60
2016,03,14,12,11,8.50
2016,03,14,12,12,8.40
2016,03,14,12,13,8.30
2016,03,14,12,14,8.20
2016,03,14,12,15,8.20
2016,03,14,12,16,8.10
2016,03,14,12,17,8.10
2016,03,14,12,18,8.10
2016,03,14,12,19,8.10
2016,03,14,12,20,8.10
2016,03,14,12,21,8.10
2016,03,14,12,22,8.00
2016,03,14,12,23,8.00
2016,03,14,12,24,8.10
2016,03,14,12,25,8.10
2016,03,14,12,26,8.10
2016,03,14,12,27,8.20
2016,03,14,12,28,8.20
2016,03,14,12,29,8.20
2016,03,14,12,30,8.20
2016,03,14,12,31,8.20
2016,03,14,12,32,8.20
2016,03,14,12,33,8.10
2016,03,14,12,34,8.10
2016,03,14,12,35,8.00
2016,03,14,12,36,7.90
2016,03,14,12,37,7.90
2016,03,14,12,38,7.90
2016,03,14,12,39,7.90
2016,03,14,12,40,8.00
2016,03,14,12,41,8.00
2016,03,14,12,42,8.10
2016,03,14,12,43,8.00
2016,03,14,12,44,8.00
2016,03,14,12,45,7.90
2016,03,14,12,46,7.90
2016,03,14,12,47,7.80
2016,03,14,12,48,7.80
2016,03,14,12,49,7.70
2016,03,14,12,50,7.70
2016,03,14,12,51,7.70
2016,03,14,12,52,7.60
2016,03,14,12,53,7.60
2016,03,14,12,54,7.50
2016,03,14,12,55,7.50
2016,03,14,12,56,7.40
2016,03,14,12,57,7.40
2016,03,14,12,58,7.30
2016,03,14,12,59,7.30
2016,03,14,13,00,7.30
2016,03,14,13,01,7.30
2016,03,14,13,02,7.30
2016,03,14,13,03,7.30
2016,03,14,13,04,7.30
2016,03,14,13,05,7.30
2016,03,14,13,06,7.40
2016,03,14,13,07,7.50
2016,03,14,13,08,7.60
2016,03,14,13,09,7.70
2016,03,14,13,10,7.70
2016,03,14,13,11,7.80
2016,03,14,13,12,7.80
2016,03,14,13,13,7.90
2016,03,14,13,14,7.90
2016,03,14,13,15,8.00
2016,03,14,13,16,8.00
2016,03,14,13,17,8.10
2016,03,14,13,18,8.10
2016,03,14,13,19,8.10
2016,03,14,13,20,8.00
2016,03,14,13,21,7.90
2016,03,14,13,22,7.90
2016,03,14,13,23,7.80
2016,03,14,13,24,7.80
2016,03,14,13,25,7.70
2016,03,14,13,26,7.60
2016,03,14,13,27,7.60
2016,03,14,13,28,7.60
2016,03,14,13,29,7.60
2016,03,14,13,30,7.60
2016,03,14,13,31,7.60
2016,03,14,13,32,7.70
2016,03,14,13,33,7.90
2016,03,14,13,34,8.00
2016,03,14,13,35,8.10
2016,03,14,13,36,8.10
2016,03,14,13,37,8.20
2016,03,14,13,38,8.30
2016,03,14,13,39,8.30
2016,03,14,13,40,8.40
2016,03,14,13,41,8.40
2016,03,14,13,42,8.40
2016,03,14,13,43,8.40
2016,03,14,13,44,8.40
2016,03,14,13,45,8.40
2016,03,14,13,46,8.40
2016,03,14,13,47,8.50
2016,03,14,13,48,8.50
2016,03,14,13,49,8.60
2016,03,14,13,50,8.60
2016,03,14,13,51,8.70
2016,03,14,13,52,8.70
2016,03,14,13,53,8.60
2016,03,14,13,54,8.60
2016,03,14,13,55,8.50
2016,03,14,13,56,8.40
2016,03,14,13,57,8.20
2016,03,14,13,58,8.20
2016,03,14,13,59,8.10
2016,03,14,14,00,8.10
2016,03,14,14,01,8.10
2016,03,14,14,02,8.00
2016,03,14,14,03,8.00
2016,03,14,14,04,7.90
2016,03,14,14,05,7.80
2016,03,14,14,06,7.80
2016,03,14,14,07,7.60
2016,03,14,14,08,7.40
2016,03,14,14,09,7.20
2016,03,14,14,10,7.10
2016,03,14,14,11,7.00
2016,03,14,14,12,7.00
2016,03,14,14,13,6.90
2016,03,14,14,14,6.90
2016,03,14,14,15,6.80
2016,03,14,14,16,6.80
2016,03,14,14,17,6.80
2016,03,14,14,18,6.80
2016,03,14,14,19,6.80
2016,03,14,14,20,6.90
2016,03,14,14,21,6.90
2016,03,14,14,22,6.90
2016,03,14,14,23,6.90
2016,03,14,14,24,6.90
2016,03,14,14,25,7.00
2016,03,14,14,26,7.00
2016,03,14,14,27,7.10
2016,03,14,14,28,7.20
2016,03,14,14,29,7.20
2016,03,14,14,30,7.30
2016,03,14,14,31,7.30
2016,03,14,14,32,7.30
2016,03,14,14,33,7.40
2016,03,14,14,34,7.40
2016,03,14,14,35,7.40
2016,03,14,14,36,7.40
2016,03,14,14,37,7.40
2016,03,14,14,38,7.40
2016,03,14,14,39,7.40
2016,03,14,14,40,7.40
2016,03,14,14,41,7.40
2016,03,14,14,42,7.40
2016,03,14,14,43,7.40
2016,03,14,14,44,7.40
2016,03,14,14,45,7.40
2016,03,14,14,46,7.40
2016,03,14,14,47,7.40
2016,03,14,14,48,7.40
2016,03,14,14,49,7.40
2016,03,14,14,50,7.30
2016,03,14,14,51,7.30
2016,03,14,14,52,7.20
2016,03,14,14,53,7.20
2016,03,14,14,54,7.20
2016,03,14,14,55,7.10
2016,03,14,14,56,7.00
2016,03,14,14,57,6.90
2016,03,14,14,58,6.80
2016,03,14,14,59,6.80
2016,03,14,15,00,6.80
2016,03,14,15,01,6.70
2016,03,14,15,02,6.70
2016,03,14,15,03,6.70
2016,03,14,15,04,6.70
2016,03,14,15,05,6.70
2016,03,14,15,06,6.70
2016,03,14,15,07,6.70
2016,03,14,15,08,6.70
2016,03,14,15,09,6.70
2016,03,14,15,10,6.70
2016,03,14,15,11,6.70
2016,03,14,15,12,6.70
2016,03,14,15,13,6.70
2016,03,14,15,14,6.70
2016,03,14,15,15,6.60
2016,03,14,15,16,6.60
2016,03,14,15,17,6.60
2016,03,14,15,18,6.60
2016,03,14,15,19,6.60
2016,03,14,15,20,6.50
2016,03,14,15,21,6.50
2016,03,14,15,22,6.50
2016,03,14,15,23,6.50
2016,03,14,15,24,6.50
2016,03,14,15,25,6.50
2016,03,14,15,26,6.50
2016,03,14,15,27,6.50
2016,03,14,15,28,6.50
2016,03,14,15,29,6.50
2016,03,14,15,30,6.50
2016,03,14,15,31,6.50
2016,03,14,15,32,6.50
2016,03,14,15,33,6.50
2016,03,14,15,34,6.40
2016,03,14,15,35,6.40
2016,03,14,15,36,6.40
2016,03,14,15,37,6.30
2016,03,14,15,38,6.30
2016,03,14,15,39,6.30
2016,03,14,15,40,6.30
2016,03,14,15,41,6.30
2016,03,14,15,42,6.30
2016,03,14,15,43,6.20
2016,03,14,15,44,6.20
2016,03,14,15,45,6.20
2016,03,14,15,46,6.20
2016,03,14,15,47,6.20
2016,03,14,15,48,6.20
2016,03,14,15,49,6.10
2016,03,14,15,50,6.10
2016,03,14,15,51,6.10
2016,03,14,15,52,6.10
2016,03,14,15,53,6.10
2016,03,14,15,54,6.10
2016,03,14,15,55,6.10
2016,03,14,15,56,6.00
2016,03,14,15,57,6.00
2016,03,14,15,58,6.00
2016,03,14,15,59,5.90
2016,03,14,16,00,5.90
2016,03,14,16,01,5.90
2016,03,14,16,02,5.90
2016,03,14,16,03,5.90
2016,03,14,16,04,5.90
2016,03,14,16,05,5.90
2016,03,14,16,06,5.90
2016,03,14,16,07,5.90
2016,03,14,16,08,5.90
2016,03,14,16,09,6.00
2016,03,14,16,10,6.00
2016,03,14,16,11,6.10
2016,03,14,16,12,6.20
2016,03,14,16,13,6.30
2016,03,14,16,14,6.30
2016,03,14,16,15,6.40
2016,03,14,16,16,6.50
2016,03,14,16,17,6.60
2016,03,14,16,18,6.60
2016,03,14,16,19,6.70
2016,03,14,16,20,6.70
2016,03,14,16,21,6.80
2016,03,14,16,22,6.80
2016,03,14,16,23,6.90
2016,03,14,16,24,6.90
2016,03,14,16,25,6.90
2016,03,14,16,26,6.90
2016,03,14,16,27,6.90
2016,03,14,16,28,6.90
2016,03,14,16,29,6.90
2016,03,14,16,30,6.90
2016,03,14,16,31,6.90
2016,03,14,16,32,6.80
2016,03,14,16,33,6.80
2016,03,14,16,34,6.80
2016,03,14,16,35,6.80
2016,03,14,16,36,6.80
2016,03,14,16,37,6.80
2016,03,14,16,38,6.80
2016,03,14,16,39,6.90
2016,03,14,16,40,6.90
2016,03,14,16,41,6.90
2016,03,14,16,42,6.90
2016,03,14,16,43,6.90
2016,03,14,16,44,6.90
2016,03,14,16,45,6.90
2016,03,14,16,46,7.00
2016,03,14,16,47,7.00
2016,03,14,16,48,7.00
2016,03,14,16,49,7.00
2016,03,14,16,50,7.00
2016,03,14,16,51,6.90
2016,03,14,16,52,6.90
2016,03,14,16,53,6.90
2016,03,14,16,54,6.90
2016,03,14,16,55,6.90
2016,03,14,16,56,6.90
2016,03,14,16,57,6.80
2016,03,14,16,58,6.80
2016,03,14,16,59,6.80
2016,03,14,17,00,6.80
2016,03,14,17,01,6.70
2016,03,14,17,02,6.70
2016,03,14,17,03,6.60
2016,03,14,17,04,6.60
2016,03,14,17,05,6.60
2016,03,14,17,06,6.50
2016,03,14,17,07,6.50
2016,03,14,17,08,6.50
2016,03,14,17,09,6.40
2016,03,14,17,10,6.40
2016,03,14,17,11,6.40
2016,03,14,17,12,6.40
2016,03,14,17,13,6.40
2016,03,14,17,14,6.30
2016,03,14,17,15,6.30
2016,03,14,17,16,6.30
2016,03,14,17,17,6.20
2016,03,14,17,18,6.20
2016,03,14,17,19,6.20
2016,03,14,17,20,6.20
2016,03,14,17,21,6.20
2016,03,14,17,22,6.20
2016,03,14,17,23,6.20
2016,03,14,17,24,6.10
2016,03,14,17,25,6.10
2016,03,14,17,26,6.10
2016,03,14,17,27,6.00
2016,03,14,17,28,6.00
2016,03,14,17,29,6.00
2016,03,14,17,30,6.00
2016,03,14,17,31,6.00
2016,03,14,17,32,6.00
2016,03,14,17,33,6.00
2016,03,14,17,34,6.00
2016,03,14,17,35,5.90
2016,03,14,17,36,5.90
2016,03,14,17,37,5.90
2016,03,14,17,38,5.90
2016,03,14,17,39,5.80
2016,03,14,17,40,5.80
2016,03,14,17,41,5.80
2016,03,14,17,42,5.80
2016,03,14,17,43,5.80
2016,03,14,17,44,5.80
2016,03,14,17,45,5.80
2016,03,14,17,46,5.80
2016,03,14,17,47,5.80
2016,03,14,17,48,5.80
2016,03,14,17,49,5.80
2016,03,14,17,50,5.80
2016,03,14,17,51,5.80
2016,03,14,17,52,5.80
2016,03,14,17,53,5.80
2016,03,14,17,54,5.80
2016,03,14,17,55,5.80
2016,03,14,17,56,5.80
2016,03,14,17,57,5.80
2016,03,14,17,58,5.80
2016,03,14,17,59,5.80
2016,03,14,18,00,5.70
2016,03,14,18,01,5.70
2016,03,14,18,02,5.70
2016,03,14,18,03,5.70
2016,03,14,18,04,5.70
2016,03,14,18,05,5.70
2016,03,14,18,06,5.70
2016,03,14,18,07,5.70
2016,03,14,18,08,5.70
2016,03,14,18,09,5.70
2016,03,14,18,10,5.70
2016,03,14,18,11,5.70
2016,03,14,18,12,5.70
2016,03,14,18,13,5.70
2016,03,14,18,14,5.70
2016,03,14,18,15,5.70
2016,03,14,18,16,5.70
2016,03,14,18,17,5.70
2016,03,14,18,18,5.70
2016,03,14,18,19,5.70
2016,03,14,18,20,5.70
2016,03,14,18,21,5.70
2016,03,14,18,22,5.70
2016,03,14,18,23,5.70
2016,03,14,18,24,5.70
2016,03,14,18,25,5.70
2016,03,14,18,26,5.70
2016,03,14,18,27,5.70
2016,03,14,18,28,5.70
2016,03,14,18,29,5.70
2016,03,14,18,30,5.70
2016,03,14,18,31,5.70
2016,03,14,18,32,5.70
2016,03,14,18,33,5.70
2016,03,14,18,34,5.70
2016,03,14,18,35,5.70
2016,03,14,18,36,5.70
2016,03,14,18,37,5.70
2016,03,14,18,38,5.70
2016,03,14,18,39,5.70
2016,03,14,18,40,5.70
2016,03,14,18,41,5.70
2016,03,14,18,42,5.70
2016,03,14,18,43,5.70
2016,03,14,18,44,5.70
2016,03,14,18,45,5.70
2016,03,14,18,46,5.70
2016,03,14,18,47,5.70
2016,03,14,18,48,5.70
2016,03,14,18,49,5.70
2016,03,14,18,50,5.70
